Location: ??????
(55.7522°N, 37.6156°E)
Time: 18:25:26
(UTC+00:00)

Cosmos 2227 - Pass Details

Date: 14 June 2025
Orbit: 834 x 859 km, 71.0° (Epoch: 12 July)

Event Time Altitude Azimuth Distance (km) Brightness Sun altitude
Exits shadow 20:51:48 12° 193° (SSW) 2,339 5.9 -10.5°
Maximum altitude 20:56:59 58° 116° (ESE) 976 4.4 -10.6°
Drops below altitude 10° 21:02:29 10° 39° (NE) 2,457 7.3 -10.7°
Sets 21:04:58 0° 36° (NE) 3,396 8.2 -10.8°
